When you browse on this site, cookies collect data to enhance your experience and personalize the content and advertising you see.
Visit our Privacy Policy to learn more. By continuing to use the site, you agree to this use of cookies and data.
  • în România
  • Lista ţărilor
  • Pe 7 zile
  • Temperatura apei
  • Hartă satelitară
  • Meteo pe hartă
  • Widget-uri
  • user-avatar
    Intrare

    Meteo pe oră la Zavodskoy

    Astăzi, 19 Martie, Marţi

    Timp Temperatura Precipitaţii Vânt Presiune Umiditate
    00:00 -2°C° 0 mm 6 m/s 752 mmHg 97%
    01:00 -2°C° 0 mm 6 m/s 751 mmHg 97%
    02:00 -2°C° 0 mm 6 m/s 751 mmHg 96%
    03:00 -2°C° 0 mm 6 m/s 751 mmHg 95%
    04:00 -2°C° 0 mm 6 m/s 751 mmHg 93%
    05:00 -2°C° 0 mm 6 m/s 751 mmHg 92%
    06:00 -3°C° 0 mm 6 m/s 750 mmHg 90%
    07:00 -2°C° 0 mm 6 m/s 750 mmHg 90%
    08:00 -2°C° 0 mm 6 m/s 751 mmHg 91%
    09:00 -2°C° 0 mm 6 m/s 751 mmHg 91%
    10:00 -1°C° 0 mm 6 m/s 751 mmHg 94%
    11:00 -1°C° 0 mm 6 m/s 751 mmHg 97%
    12:00 -1°C° 0 mm 6 m/s 751 mmHg 99%
    13:00 0°C° 0 mm 5 m/s 751 mmHg 99%
    14:00 0°C° 0 mm 5 m/s 751 mmHg 99%
    15:00 0°C° 0 mm 5 m/s 751 mmHg 99%
    16:00 0°C° 0 mm 5 m/s 751 mmHg 99%
    17:00 0°C° 0 mm 5 m/s 751 mmHg 99%
    18:00 0°C° 0 mm 5 m/s 751 mmHg 98%
    19:00 0°C° 0 mm 4 m/s 751 mmHg 98%
    20:00 0°C° 0 mm 4 m/s 751 mmHg 97%
    21:00 0°C° 0 mm 4 m/s 751 mmHg 97%
    22:00 0°C° 0.2 mm 4 m/s 751 mmHg 97%
    23:00 0°C° 0.2 mm 4 m/s 751 mmHg 97%

    Mâine, 20 Martie, Miercuri

    Timp Temperatura Precipitaţii Vânt Presiune Umiditate
    00:00 0°C° 0.2 mm 4 m/s 751 mmHg 98%
    01:00 0°C° 0.5 mm 4 m/s 751 mmHg 98%
    02:00 +1°C° 0.5 mm 3 m/s 751 mmHg 98%
    03:00 +1°C° 0.5 mm 3 m/s 751 mmHg 98%
    04:00 0°C° 0.1 mm 3 m/s 751 mmHg 98%
    05:00 0°C° 0.1 mm 3 m/s 750 mmHg 98%
    06:00 0°C° 0.1 mm 3 m/s 750 mmHg 98%
    07:00 0°C° 0 mm 3 m/s 750 mmHg 99%
    08:00 0°C° 0 mm 3 m/s 750 mmHg 99%
    09:00 0°C° 0 mm 3 m/s 751 mmHg 99%
    10:00 0°C° 0 mm 3 m/s 751 mmHg 99%
    11:00 0°C° 0 mm 3 m/s 751 mmHg 99%
    12:00 +1°C° 0 mm 3 m/s 751 mmHg 99%
    13:00 +1°C° 0 mm 3 m/s 751 mmHg 99%
    14:00 +1°C° 0 mm 3 m/s 751 mmHg 98%
    15:00 +1°C° 0 mm 3 m/s 751 mmHg 98%
    16:00 0°C° 0 mm 3 m/s 751 mmHg 97%
    17:00 0°C° 0 mm 3 m/s 751 mmHg 96%
    18:00 0°C° 0 mm 3 m/s 751 mmHg 95%
    19:00 -1°C° 0 mm 3 m/s 751 mmHg 93%
    20:00 -1°C° 0 mm 3 m/s 751 mmHg 91%
    21:00 -1°C° 0 mm 3 m/s 751 mmHg 89%
    22:00 -1°C° 0 mm 3 m/s 751 mmHg 88%
    23:00 -1°C° 0 mm 3 m/s 751 mmHg 88%

    Poimâine, 21 Martie, Joi

    Timp Temperatura Precipitaţii Vânt Presiune Umiditate
    00:00 -2°C° 0 mm 3 m/s 751 mmHg 87%
    01:00 -2°C° 0 mm 3 m/s 750 mmHg 87%
    02:00 -2°C° 0 mm 3 m/s 750 mmHg 88%
    03:00 -2°C° 0 mm 3 m/s 750 mmHg 89%
    04:00 -2°C° 0 mm 3 m/s 749 mmHg 88%
    05:00 -2°C° 0 mm 3 m/s 748 mmHg 87%
    06:00 -2°C° 0 mm 3 m/s 748 mmHg 86%
    07:00 -3°C° 0.1 mm 4 m/s 747 mmHg 87%
    08:00 -3°C° 0.1 mm 4 m/s 747 mmHg 88%
    09:00 -4°C° 0.1 mm 5 m/s 746 mmHg 89%
    10:00 -2°C° 0.3 mm 5 m/s 746 mmHg 90%
    11:00 -2°C° 0.3 mm 5 m/s 746 mmHg 91%
    12:00 -1°C° 0.3 mm 5 m/s 745 mmHg 92%
    13:00 -1°C° 0.3 mm 4 m/s 745 mmHg 94%
    14:00 0°C° 0.3 mm 3 m/s 745 mmHg 96%
    15:00 0°C° 0.3 mm 3 m/s 745 mmHg 98%
    16:00 0°C° 0.2 mm 3 m/s 745 mmHg 96%
    17:00 0°C° 0.2 mm 3 m/s 745 mmHg 95%
    18:00 0°C° 0.2 mm 3 m/s 745 mmHg 93%
    19:00 0°C° 0 mm 3 m/s 746 mmHg 93%
    20:00 0°C° 0 mm 3 m/s 746 mmHg 93%
    21:00 0°C° 0 mm 3 m/s 747 mmHg 93%
    22:00 -1°C° 0 mm 3 m/s 747 mmHg 94%
    23:00 -1°C° 0 mm 3 m/s 747 mmHg 95%

    22 Martie, Vineri

    Timp Temperatura Precipitaţii Vânt Presiune Umiditate
    00:00 -1°C° 0 mm 3 m/s 747 mmHg 96%
    01:00 -1°C° 0 mm 3 m/s 747 mmHg 96%
    02:00 -2°C° 0 mm 3 m/s 748 mmHg 96%
    03:00 -2°C° 0 mm 3 m/s 748 mmHg 96%
    04:00 -2°C° 0 mm 2 m/s 748 mmHg 96%
    05:00 -2°C° 0 mm 2 m/s 748 mmHg 96%
    06:00 -3°C° 0 mm 2 m/s 749 mmHg 96%
    07:00 -2°C° 0 mm 2 m/s 749 mmHg 95%
    08:00 -2°C° 0 mm 2 m/s 749 mmHg 94%
    09:00 -1°C° 0 mm 2 m/s 750 mmHg 93%
    10:00 -1°C° 0 mm 2 m/s 750 mmHg 93%
    11:00 -1°C° 0 mm 2 m/s 750 mmHg 92%
    12:00 0°C° 0 mm 3 m/s 750 mmHg 92%
    13:00 0°C° 0 mm 3 m/s 749 mmHg 91%
    14:00 0°C° 0 mm 3 m/s 749 mmHg 90%
    15:00 0°C° 0 mm 4 m/s 748 mmHg 89%
    16:00 0°C° 0 mm 4 m/s 748 mmHg 89%
    17:00 -1°C° 0 mm 4 m/s 748 mmHg 89%
    18:00 -1°C° 0 mm 4 m/s 748 mmHg 89%
    19:00 -1°C° 0 mm 4 m/s 747 mmHg 89%
    20:00 -1°C° 0 mm 4 m/s 747 mmHg 89%
    21:00 -1°C° 0 mm 5 m/s 747 mmHg 89%
    22:00 -1°C° 0 mm 5 m/s 746 mmHg 91%
    23:00 0°C° 0 mm 5 m/s 745 mmHg 92%

    23 Martie, Sâmbătă

    Timp Temperatura Precipitaţii Vânt Presiune Umiditate
    00:00 -1°C° 0 mm 6 m/s 744 mmHg 94%
    01:00 -1°C° 0.4 mm 6 m/s 743 mmHg 94%
    02:00 0°C° 0.4 mm 7 m/s 742 mmHg 95%
    03:00 0°C° 0.4 mm 7 m/s 741 mmHg 95%
    04:00 0°C° 0.7 mm 7 m/s 741 mmHg 95%
    05:00 +1°C° 0.7 mm 8 m/s 740 mmHg 94%
    06:00 +1°C° 0.7 mm 8 m/s 739 mmHg 94%
    07:00 +1°C° 0.2 mm 8 m/s 739 mmHg 92%
    08:00 +3°C° 0.2 mm 7 m/s 739 mmHg 89%
    09:00 +3°C° 0.2 mm 7 m/s 738 mmHg 87%
    10:00 +1°C° 0 mm 8 m/s 739 mmHg 79%
    11:00 +1°C° 0 mm 9 m/s 739 mmHg 72%
    12:00 +1°C° 0 mm 9 m/s 739 mmHg 65%
    13:00 0°C° 0 mm 9 m/s 739 mmHg 65%
    14:00 0°C° 0 mm 9 m/s 739 mmHg 64%
    15:00 0°C° 0 mm 9 m/s 739 mmHg 64%
    16:00 -1°C° 0.1 mm 9 m/s 740 mmHg 65%
    17:00 -1°C° 0.1 mm 9 m/s 740 mmHg 66%
    18:00 -1°C° 0.1 mm 8 m/s 740 mmHg 67%
    19:00 -2°C° 0 mm 8 m/s 741 mmHg 68%
    20:00 -2°C° 0 mm 8 m/s 741 mmHg 69%
    21:00 -4°C° 0 mm 8 m/s 741 mmHg 70%
    22:00 -4°C° 0 mm 8 m/s 742 mmHg 70%
    23:00 -4°C° 0 mm 8 m/s 742 mmHg 70%

    24 Martie, Duminică

    Timp Temperatura Precipitaţii Vânt Presiune Umiditate
    00:00 -4°C° 0 mm 8 m/s 742 mmHg 70%
    01:00 -4°C° 0 mm 7 m/s 743 mmHg 70%
    02:00 -4°C° 0 mm 7 m/s 743 mmHg 71%
    03:00 -4°C° 0 mm 7 m/s 743 mmHg 71%
    04:00 -4°C° 0 mm 7 m/s 743 mmHg 72%
    05:00 -4°C° 0 mm 6 m/s 744 mmHg 73%
    06:00 -5°C° 0 mm 6 m/s 744 mmHg 74%
    07:00 -4°C° 0 mm 6 m/s 744 mmHg 71%
    08:00 -4°C° 0 mm 6 m/s 744 mmHg 69%
    09:00 -3°C° 0 mm 6 m/s 744 mmHg 67%
    10:00 -1°C° 0 mm 5 m/s 744 mmHg 62%
    11:00 0°C° 0 mm 5 m/s 744 mmHg 57%
    12:00 +1°C° 0 mm 5 m/s 744 mmHg 52%
    13:00 +1°C° 0 mm 5 m/s 743 mmHg 50%
    14:00 +2°C° 0 mm 5 m/s 742 mmHg 49%
    15:00 +2°C° 0 mm 5 m/s 742 mmHg 47%
    16:00 +3°C° 0.2 mm 4 m/s 741 mmHg 56%
    17:00 +1°C° 0.2 mm 4 m/s 740 mmHg 65%
    18:00 0°C° 0.2 mm 4 m/s 739 mmHg 73%
    19:00 0°C° 1 mm 5 m/s 737 mmHg 77%
    20:00 -1°C° 1 mm 7 m/s 736 mmHg 81%
    21:00 -2°C° 1 mm 8 m/s 734 mmHg 85%
    22:00 -1°C° 0.9 mm 8 m/s 732 mmHg 88%
    23:00 0°C° 0.9 mm 8 m/s 731 mmHg 92%
    Arată mai mult